FW0211 Weather Reports


time (UTC)temp
F
wind
direction
speed
knots
gust
knots
rain 1hr
in
rain 24hr
in
rain mn
in
humidity
%
barometer
mb
20260505121537 75 173 15.6 22.6 0.00 0.00 0.00 88 1010.7
20260505120030 75 167 14.8 20.9 0.00 0.00 0.00 88 1010.5
20260505114528 75 190 14.8 20.9 0.00 0.00 0.00 88 1010.3
20260505113038 75 188 14.8 20.9 0.00 0.00 0.00 88 1010.6
20260505111540 74 360 15.6 22.6 0.00 0.00 0.00 87 1010.4
20260505101523 74 171 13.0 21.7 0.00 0.00 0.00 86 1010.4
20260505100011 74 182 15.6 22.6 0.00 0.00 0.00 86 1010.6
20260505094505 74 176 15.6 22.6 0.00 0.00 0.00 85 1010.5
20260505093100 74 182 14.8 23.5 0.00 0.00 0.00 85 1010.5
20260505091606 74 186 16.5 23.5 0.00 0.00 0.00 85 1010.5
20260505090057 74 182 15.6 21.7 0.00 0.00 0.00 85 1010.5
20260505084547 74 194 15.6 24.3 0.00 0.00 0.00 84 1010.6
20260505083100 74 159 19.1 30.4 0.00 0.00 0.00 84 1010.8
20260505081539 74 191 18.2 26.9 0.00 0.00 0.00 83 1010.8
20260505080041 74 185 20.9 24.3 0.00 0.00 0.00 83 1010.7
20260505074536 74 190 19.1 24.3 0.00 0.00 0.00 83 1010.8
20260505073034 74 192 17.4 25.2 0.00 0.00 0.00 82 1010.9
20260505071534 74 160 17.4 24.3 0.00 0.00 0.00 82 1010.9
20260505070030 74 186 15.6 24.3 0.00 0.00 0.00 82 1011.3
20260505064529 74 184 18.2 26.1 0.00 0.00 0.00 81 1011.5
20260505063029 74 178 17.4 24.3 0.00 0.00 0.00 81 1011.5
20260505061538 74 360 19.1 25.2 0.00 0.00 0.00 81 1011.6
20260505060027 74 174 16.5 25.2 0.00 0.00 0.00 80 1011.7
20260505054535 74 178 16.5 25.2 0.00 0.00 0.00 80 1011.8
20260505053026 74 158 16.5 24.3 0.00 0.00 0.00 80 1012.0
20260505051523 74 159 15.6 24.3 0.00 0.00 0.00 79 1012.0
20260505041517 74 360 17.4 20.9 0.00 0.00 0.00 78 1012.4
20260505040033 74 184 16.5 22.6 0.00 0.00 0.00 78 1012.4
20260505034518 74 174 16.5 22.6 0.00 0.00 0.00 77 1012.5
20260505033016 74 162 16.5 24.3 0.00 0.00 0.00 77 1012.5
20260505031514 74 360 16.5 25.2 0.00 0.00 0.00 77 1012.6
20260505030016 74 360 16.5 23.5 0.00 0.00 0.00 77 1012.7
20260505024512 74 155 17.4 21.7 0.00 0.00 0.00 77 1012.7
20260505023013 74 137 14.8 20.9 0.00 0.00 0.00 77 1012.9
20260505021511 74 146 14.8 21.7 0.00 0.00 0.00 76 1012.6
20260505020013 74 144 14.8 20.9 0.00 0.00 0.00 76 1012.5
20260505014509 74 170 13.0 18.2 0.00 0.00 0.00 76 1012.4
20260505013009 74 360 14.8 20.0 0.00 0.00 0.00 75 1012.2
20260505011509 74 167 13.9 19.1 0.00 0.00 0.00 75 1012.2
20260505010009 74 153 13.9 17.4 0.00 0.00 0.00 74 1012.1
20260505004512 74 155 12.2 18.2 0.00 0.00 0.00 73 1012.3
20260505003004 75 360 13.0 17.4 0.00 0.00 0.00 72 1012.5
20260505001504 75 360 13.0 18.2 0.00 0.00 0.00 72 1012.5
20260505000003 75 169 12.2 17.4 0.00 0.00 0.00 71 1012.5
20260504234613 75 172 12.2 16.5 0.00 0.00 0.00 70 1012.5
20260504233102 75 360 10.4 17.4 0.00 0.00 0.00 70 1012.8
20260504231557 76 360 11.3 18.2 0.00 0.00 0.00 69 1013.0
20260504230057 76 360 11.3 16.5 0.00 0.00 0.00 69 1013.1
20260504224555 76 360 11.3 15.6 0.00 0.00 0.00 70 1013.3
20260504223055 76 360 10.4 16.5 0.00 0.00 0.00 70 1013.5
20260504221553 76 182 11.3 13.0 0.00 0.00 0.00 69 1013.6
20260504220100 76 182 12.2 16.5 0.00 0.00 0.00 69 1013.8
20260504214551 76 169 10.4 17.4 0.00 0.00 0.00 69 1013.9
20260504213108 76 155 10.4 14.8 0.00 0.00 0.00 68 1013.9
20260504211548 77 166 9.6 15.6 0.00 0.00 0.00 68 1014.4
20260504210047 77 360 9.6 14.8 0.00 0.00 0.00 67 1014.3
20260504204547 77 211 11.3 14.8 0.00 0.00 0.00 66 1014.6
20260504203044 77 167 11.3 14.8 0.00 0.00 0.00 67 1014.7
20260504201542 77 360 9.6 12.2 0.00 0.00 0.00 67 1014.8
20260504200041 77 360 7.8 13.9 0.00 0.00 0.00 67 1014.9
20260504194539 77 188 8.7 13.9 0.00 0.00 0.00 67 1015.3
20260504193053 77 138 8.7 13.0 0.00 0.00 0.00 65 1015.5
20260504191537 77 169 10.4 14.8 0.00 0.00 0.00 65 1015.6
20260504190038 76 168 9.6 16.5 0.00 0.00 0.00 67 1015.5
20260504184532 76 360 13.0 20.0 0.00 0.00 0.00 68 1015.9
20260504183034 76 155 12.2 15.6 0.00 0.00 0.00 67 1015.9
20260504181534 76 182 12.2 19.1 0.00 0.00 0.00 67 1016.0
20260504180027 75 205 11.3 16.5 0.00 0.00 0.00 67 1016.2
20260504174522 75 151 12.2 18.2 0.00 0.00 0.00 67 1016.2
20260504173022 76 360 13.0 17.4 0.00 0.00 0.00 68 1016.3
20260504171517 75 360 12.2 18.2 0.00 0.00 0.00 67 1016.9